Lubbock, TX

11:09 PM CST on November 18, 2019 (GMT -0600)
Lubbock International

Weather History for KLBB - October, 2019

Change the Weather History Date:

Wednesday, October 23, 2019

  Actual Average Record
Temperature  
Mean Temperature 62 °F 59 °F  
Max Temperature 78 °F 73 °F 91 °F (2003)
Min Temperature 45 °F 46 °F 22 °F (1917)
Degree Days  
Heating Degree Days 4 6  
Month to date heating degree days 98 96  
Since 1 July heating degree days 98 119  
Cooling Degree Days 0 1  
Month to date cooling degree days 59 48  
Year to date cooling degree days 2160 1797  
Growing Degree Days 12 (Base 50)    
Moisture  
Dew Point 29 °F    
Average Humidity 31    
Maximum Humidity 58    
Minimum Humidity 18    
Precipitation  
Precipitation T in 0.06 in 2.38 in (1914)
Month to date precipitation 1.10 1.54  
Year to date precipitation 22.66 17.12  
Snow  
Snow - 0.00 in 0.00 in (2002)
Month to date snowfall 0.0 0.0  
Since 1 July snowfall 0.0 0.0  
Since 1 September snowfall 0.0 0.0  
Snow Depth 0.00 in    
Sea Level Pressure  
Sea Level Pressure 29.87 in    
Wind  
Wind Speed 8 mph ()    
Max Wind Speed 20 mph    
Max Gust Speed 25 mph    
Visibility 10.0 miles    
Events      
T = Trace of Precipitation, MM = Missing Value Source: Averaged Metar Reports

Daily Weather History Graph

Daily Weather History Graph

Search for Another Location

Airport or City:

Astronomy

Oct. 23, 2019 Rise Set
Actual Time 7:58 AM CDT 7:04 PM CDT
Civil Twilight 7:33 AM CDT 7:29 PM CDT
Nautical Twilight 7:03 AM CDT 7:58 PM CDT
Astronomical Twilight 6:34 AM CDT 8:27 PM CDT
Moon 2:40 AM CDT (10/23) 4:37 PM CDT (10/23)
Length of Visible Light 11h 56m
Length of Day
11h 05m
Waning Crescent, 26% of the Moon is Illuminated
Oct 23
Waning Crescent
Oct 27
New
Nov 4
First Quarter
Nov 12
Full
Nov 19
Last Quarter

Hourly Weather History & Observations

Time (CDT) Temp. Windchill Dew Point Humidity Pressure Visibility Wind Dir Wind Speed Gust Speed Precip Events Conditions
12:53 AM 51.1 °F - 25.0 °F 36% 29.94 in 10.0 mi SSW 5.8 mph - N/A   Clear
1:53 AM 53.1 °F - 24.1 °F 32% 29.91 in 10.0 mi SW 8.1 mph - N/A   Clear
2:53 AM 55.9 °F - 21.9 °F 27% 29.89 in 10.0 mi SW 13.8 mph - N/A   Clear
3:53 AM 55.9 °F - 28.9 °F 36% 29.87 in 10.0 mi SW 13.8 mph - N/A   Clear
4:53 AM 54.0 °F - 30.0 °F 40% 29.86 in 10.0 mi SW 13.8 mph - N/A   Clear
5:53 AM 52.0 °F - 30.9 °F 45% 29.87 in 10.0 mi WSW 9.2 mph - N/A   Clear
6:53 AM 50.0 °F - 30.9 °F 48% 29.89 in 10.0 mi WSW 9.2 mph - N/A   Clear
7:53 AM 45.0 °F 40.6 °F 30.0 °F 56% 29.91 in 10.0 mi SW 8.1 mph - N/A   Clear
8:53 AM 53.1 °F - 32.0 °F 45% 29.90 in 10.0 mi SW 10.4 mph - N/A   Partly Cloudy
9:53 AM 60.1 °F - 33.1 °F 36% 29.89 in 10.0 mi SW 10.4 mph - N/A   Clear
10:53 AM 64.9 °F - 28.0 °F 25% 29.90 in 10.0 mi WSW 10.4 mph - N/A   Clear
11:53 AM 69.1 °F - 28.9 °F 22% 29.89 in 10.0 mi West 6.9 mph - N/A   Clear
12:53 PM 72.0 °F - 28.0 °F 20% 29.88 in 10.0 mi NW 3.5 mph - N/A   Partly Cloudy
1:53 PM 73.0 °F - 28.9 °F 20% 29.85 in 10.0 mi Calm Calm - N/A   Clear
2:53 PM 75.0 °F - 28.9 °F 18% 29.81 in 10.0 mi Variable 3.5 mph - N/A   Clear
3:53 PM 75.0 °F - 28.9 °F 18% 29.80 in 10.0 mi South 4.6 mph - N/A   Partly Cloudy
4:53 PM 75.9 °F - 28.9 °F 18% 29.80 in 10.0 mi Calm Calm - N/A   Partly Cloudy
5:53 PM 75.9 °F - 28.9 °F 18% 29.80 in 10.0 mi ENE 5.8 mph - N/A   Partly Cloudy
6:53 PM 69.1 °F - 30.9 °F 24% 29.83 in 10.0 mi NE 8.1 mph - N/A   Partly Cloudy
7:53 PM 64.0 °F - 30.0 °F 28% 29.85 in 10.0 mi NE 12.7 mph - N/A   Partly Cloudy
8:53 PM 62.1 °F - 30.0 °F 30% 29.87 in 10.0 mi ENE 15.0 mph - N/A   Partly Cloudy
9:53 PM 57.9 °F - 32.0 °F 37% 29.89 in 10.0 mi NE 12.7 mph - N/A   Scattered Clouds
10:53 PM 57.9 °F - 30.9 °F 36% 29.90 in 10.0 mi NE 15.0 mph 24.2 mph N/A   Scattered Clouds
11:53 PM 57.0 °F - 30.9 °F 37% 29.90 in 10.0 mi ENE 15.0 mph 21.9 mph N/A   Partly Cloudy